Weather History for EGJB - October, 2013

Change the Weather History Date:

Monday, October 14, 2013

  Actual Average Record
Temperature  
Mean Temperature 53 °F -  
Max Temperature 55 °F 54 °F 64 °F (2005)
Min Temperature 51 °F 49 °F 46 °F (1997)
Degree Days  
Heating Degree Days 12    
Growing Degree Days 3 (Base 50)    
Moisture  
Dew Point 50 °F    
Average Humidity 90    
Maximum Humidity 100    
Minimum Humidity 73    
Precipitation  
Precipitation 0.28 in - - ()
Sea Level Pressure  
Sea Level Pressure 29.86 in    
Wind  
Wind Speed 12 mph ()    
Max Wind Speed 21 mph    
Max Gust Speed 28 mph    
Visibility 6.6 miles    
Events Rain    
Averages and records for this station are not official NWS values.
T = Trace of Precipitation, MM = Missing Value Source: Averaged Metar Reports

Daily Weather History Graph

Daily Weather History Graph

Search for Another Location

Airport or City:

Trip Planner

Search our weather history database for the weather conditions in past years. The results will help you decide how hot, cold, wet, or windy it might be!

Date:

Astronomy

Oct. 14, 2013 Rise Set
Actual Time 7:30 AM BST 6:21 PM BST
Civil Twilight 6:57 AM BST 6:53 PM BST
Nautical Twilight 6:20 AM BST 7:30 PM BST
Astronomical Twilight 5:43 AM BST 8:07 PM BST
Moon 4:03 PM BST (10/14) 2:05 AM BST (10/14)
Length of Visible Light 11h 56m
Length of Day
10h 51m
Waxing Gibbous, 77% of the Moon is Illuminated
Oct 14
Waxing Gibbous
Oct 19
Full
Oct 27
Last Quarter
Nov 3
New
Nov 10
First Quarter

Hourly Weather History & Observations

Time (BST) Temp. Dew Point Humidity Pressure Visibility Wind Dir Wind Speed Gust Speed Precip Events Conditions
1:00 AM 53 °F 50 °F 87% 29.91 in 9 mi West 11.5 mph - - Rain Light Rain
3:50 AM 53.6 °F 51.8 °F 94% 29.86 in 6.2 mi West 15.0 mph - N/A Rain Light Rain
4:00 AM 54 °F 51 °F 86% 29.88 in 9 mi West 15.0 mph - - Rain Light Rain
4:20 AM 53.6 °F 51.8 °F 94% 29.86 in 6.2 mi West 20.7 mph - N/A Rain Light Rain
4:50 AM 53.6 °F 51.8 °F 94% 29.86 in 6.2 mi West 17.3 mph - N/A Rain Light Rain
5:20 AM 53.6 °F 51.8 °F 94% 29.86 in 6.2 mi West 16.1 mph 27.6 mph N/A Rain Light Rain
5:50 AM 51.8 °F 51.8 °F 100% 29.86 in 5.6 mi WNW 15.0 mph - N/A Rain Rain
6:20 AM 51.8 °F 50.0 °F 94% 29.86 in 6.2 mi WNW 15.0 mph - N/A Rain Light Rain
6:50 AM 53.6 °F 51.8 °F 94% 29.86 in 6.2 mi WNW 13.8 mph - N/A Rain Light Rain
7:00 AM 53 °F 51 °F 90% 29.87 in 12 mi WNW 13.8 mph - - Rain Light Rain
7:20 AM 51.8 °F 50.0 °F 94% 29.86 in 6.2 mi WNW 16.1 mph - N/A Rain Light Rain
7:50 AM 51.8 °F 50.0 °F 94% 29.86 in 6.2 mi West 16.1 mph - N/A Rain Light Rain
8:20 AM 51.8 °F 51.8 °F 100% 29.86 in 6.2 mi WNW 15.0 mph - N/A Rain Rain
8:50 AM 51.8 °F 50.0 °F 94% 29.86 in 6.2 mi West 13.8 mph - N/A Rain Rain
9:20 AM 51.8 °F 50.0 °F 94% 29.86 in 6.2 mi West 13.8 mph - N/A Rain Rain
9:50 AM 51.8 °F 50.0 °F 94% 29.86 in 6.2 mi West 12.7 mph - N/A Rain Light Rain
10:00 AM 52 °F 50 °F 89% 29.89 in 11 mi West 12.7 mph - - Rain Light Rain
10:20 AM 51.8 °F 51.8 °F 100% 29.86 in 6.2 mi WNW 11.5 mph - N/A Rain Light Rain
10:50 AM 51.8 °F 51.8 °F 100% 29.86 in 6.2 mi NW 6.9 mph - N/A Rain Rain
11:20 AM 51.8 °F 51.8 °F 100% 29.86 in 6.2 mi WNW 8.1 mph - N/A Rain Rain
11:50 AM 51.8 °F 51.8 °F 100% 29.86 in 6.2 mi WNW 5.8 mph - N/A Rain Light Rain
12:20 PM 51.8 °F 50.0 °F 94% 29.86 in 6.2 mi NW 4.6 mph - N/A Rain Light Rain
12:50 PM 51.8 °F 51.8 °F 100% 29.86 in 6.2 mi West 12.7 mph - N/A Rain Light Rain
1:00 PM 52 °F 51 °F 95% 29.88 in 9 mi West 12.7 mph - - Rain Light Rain
1:20 PM 51.8 °F 50.0 °F 94% 29.86 in 6.2 mi West 13.8 mph - N/A Rain Light Rain
1:50 PM 53.6 °F 51.8 °F 94% 29.86 in 6.2 mi NW 13.8 mph - N/A Rain Light Rain
2:20 PM 51.8 °F 50.0 °F 94% 29.86 in 6.2 mi WNW 11.5 mph - N/A Rain Light Rain
2:50 PM 51.8 °F 50.0 °F 94% 29.86 in 6.2 mi WNW 12.7 mph - N/A Rain Light Rain
3:20 PM 53.6 °F 50.0 °F 88% 29.83 in 6.2 mi NW 9.2 mph - N/A   Mostly Cloudy
3:50 PM 53.6 °F 51.8 °F 94% 29.83 in 6.2 mi WNW 10.4 mph - N/A   Partly Cloudy
4:00 PM 54 °F 51 °F 87% 29.85 in 22 mi WNW 10.4 mph - - Rain Light Rain
4:20 PM 55.4 °F 50.0 °F 82% 29.83 in 6.2 mi West 13.8 mph - N/A   Partly Cloudy
4:50 PM 55.4 °F 50.0 °F 82% 29.83 in 6.2 mi West 15.0 mph - N/A   Partly Cloudy
5:20 PM 53.6 °F 48.2 °F 82% 29.83 in 6.2 mi West 13.8 mph - N/A   Partly Cloudy
5:50 PM 53.6 °F 48.2 °F 82% 29.86 in 6.2 mi West 16.1 mph - N/A   Partly Cloudy
6:20 PM 53.6 °F 46.4 °F 77% 29.86 in 6.2 mi West 13.8 mph - N/A   Partly Cloudy
6:50 PM 53.6 °F 46.4 °F 77% 29.86 in 6.2 mi West 15.0 mph - N/A   Partly Cloudy
7:00 PM 53 °F 47 °F 73% 29.88 in 25 mi West 15.0 mph - -   Partly Cloudy
7:20 PM 53.6 °F 48.2 °F 82% 29.86 in 6.2 mi West 13.8 mph - N/A   Partly Cloudy
7:50 PM 53.6 °F 48.2 °F 82% 29.86 in 6.2 mi West 12.7 mph - N/A   Partly Cloudy
8:20 PM 53.6 °F 48.2 °F 82% 29.86 in 6.2 mi West 12.7 mph - N/A   Partly Cloudy
8:50 PM 53.6 °F 48.2 °F 82% 29.86 in 6.2 mi West 15.0 mph - N/A   Scattered Clouds
9:20 PM 53.6 °F 48.2 °F 82% 29.89 in 6.2 mi West 15.0 mph - N/A   Scattered Clouds
10:00 PM 53 °F 48 °F 79% 29.90 in 22 mi West 13.8 mph - -   Scattered Clouds